Key West NAF, FL

9:13 AM EDT on July 29, 2017 (GMT -0400)
Key West Naval Air Station

Weather History for KNQX - February, 2013

Change the Weather History Date:

Saturday, February 2, 2013

  Actual Average Record
Temperature  
Mean Temperature 70 °F -  
Max Temperature 75 °F 76 °F 84 °F (2007)
Min Temperature 64 °F 66 °F 49 °F (1951)
Cooling Degree Days 4    
Growing Degree Days 20 (Base 50)    
Moisture  
Dew Point 56 °F    
Average Humidity 65    
Maximum Humidity 78    
Minimum Humidity 51    
Precipitation  
Precipitation 0.00 in - - ()
Sea Level Pressure  
Sea Level Pressure 30.17 in    
Wind  
Wind Speed 11 mph (NE)    
Max Wind Speed 15 mph    
Max Gust Speed 24 mph    
Visibility 10 miles    
Events      
Averages and records for this station are not official NWS values.
T = Trace of Precipitation, MM = Missing Value Source: NWS Daily Summary

Daily Weather History Graph

Daily Weather History Graph

Search for Another Location

Airport or City:

Trip Planner

Search our weather history database for the weather conditions in past years. The results will help you decide how hot, cold, wet, or windy it might be!

Date:

Astronomy

Feb. 02, 2013 Rise Set
Actual Time 7:08 AM EST 6:13 PM EST
Civil Twilight 6:44 AM EST 6:36 PM EST
Nautical Twilight 6:17 AM EST 7:04 PM EST
Astronomical Twilight 5:50 AM EST 7:31 PM EST
Moon No Moon Rise 11:06 AM EST (2/2)
Length of Visible Light 11h 52m
Length of Day
11h 05m
Waning Gibbous, 60% of the Moon is Illuminated
Feb 2
Waning Gibbous
Feb 3
Last Quarter
Feb 10
New
Feb 17
First Quarter
Feb 25
Full

Hourly Weather History & Observations

Time (EST) Temp. Dew Point Humidity Pressure Visibility Wind Dir Wind Speed Gust Speed Precip Events Conditions
12:53 AM 66.0 °F 59.0 °F 78% 30.20 in 10.0 mi NNE 15.0 mph 21.9 mph N/A   Overcast
1:53 AM 64.9 °F 57.0 °F 75% 30.19 in 10.0 mi NE 11.5 mph 19.6 mph N/A   Mostly Cloudy
2:53 AM 66.0 °F 55.9 °F 70% 30.19 in 10.0 mi NE 13.8 mph 20.7 mph N/A   Mostly Cloudy
3:53 AM 64.0 °F 55.9 °F 75% 30.17 in 10.0 mi ENE 10.4 mph - N/A   Clear
4:53 AM 64.0 °F 55.9 °F 75% 30.18 in 10.0 mi NE 8.1 mph - N/A   Clear
5:53 AM 64.9 °F 55.9 °F 73% 30.19 in 10.0 mi NE 11.5 mph - N/A   Clear
5:55 AM 64.4 °F 55.4 °F 73% 30.19 in 10.0 mi NE 10.4 mph - N/A   Clear
6:53 AM 64.9 °F 55.9 °F 73% 30.21 in 10.0 mi NE 13.8 mph 20.7 mph N/A   Partly Cloudy
7:53 AM 66.0 °F 55.0 °F 68% 30.22 in 10.0 mi NE 15.0 mph 20.7 mph N/A   Partly Cloudy
8:53 AM 66.9 °F 53.1 °F 61% 30.23 in 10.0 mi NE 12.7 mph 21.9 mph N/A   Partly Cloudy
9:53 AM 69.1 °F 53.1 °F 57% 30.23 in 10.0 mi NE 11.5 mph 24.2 mph N/A   Partly Cloudy
10:53 AM 71.1 °F 54.0 °F 55% 30.22 in 10.0 mi NE 12.7 mph - N/A   Partly Cloudy
11:53 AM 73.0 °F 55.9 °F 55% 30.19 in 10.0 mi ENE 10.4 mph 16.1 mph N/A   Clear
12:53 PM 73.9 °F 55.0 °F 52% 30.17 in 10.0 mi ENE 12.7 mph 17.3 mph N/A   Partly Cloudy
1:53 PM 75.0 °F 55.9 °F 51% 30.14 in 10.0 mi ENE 10.4 mph - N/A   Partly Cloudy
2:53 PM 75.0 °F 55.9 °F 51% 30.13 in 10.0 mi East 11.5 mph - N/A   Partly Cloudy
3:53 PM 73.9 °F 55.0 °F 52% 30.12 in 10.0 mi East 13.8 mph - N/A   Scattered Clouds
4:53 PM 73.0 °F 57.0 °F 57% 30.12 in 10.0 mi ENE 11.5 mph - N/A   Partly Cloudy
5:53 PM 71.1 °F 55.0 °F 57% 30.12 in 10.0 mi East 10.4 mph - N/A   Partly Cloudy
6:53 PM 70.0 °F 57.9 °F 65% 30.12 in 10.0 mi ENE 4.6 mph - N/A   Clear
7:53 PM 70.0 °F 57.9 °F 65% 30.14 in 10.0 mi ENE 5.8 mph - N/A   Mostly Cloudy
8:53 PM 70.0 °F 57.9 °F 65% 30.15 in 10.0 mi NE 5.8 mph - N/A   Mostly Cloudy
9:53 PM 69.1 °F 59.0 °F 70% 30.14 in 10.0 mi NE 4.6 mph - N/A   Mostly Cloudy
10:53 PM 68.0 °F 59.0 °F 73% 30.15 in 10.0 mi NE 4.6 mph - N/A   Scattered Clouds
11:53 PM 68.0 °F 60.1 °F 76% 30.13 in 10.0 mi NE 5.8 mph - N/A   Mostly Cloudy